Domov               UVHVVR             MKGP            O straneh              
ZDRAVSTVENO VARSTVO RASTLIN
  MREŽA AGROMET. POSTAJ
 ► PROGNOSTIČNA OBVESTILA
AGROMETEOROLOŠKI PODATKI -
ARSO
OBVLADOVANJE TVEGANJ ZARADI
NEUGODNIH VREMENSKIH RAZMER
  ► NARAVNE NESREČE
  ► SUŠA/MOČA
  ► NAMAKANJE
  ► ŽLED (gozdarstvo)
KARTOGRAFSKI PRIKAZI
SPLETNE POVEZAVE
PROJEKTI IN PUBLIKACIJE

AGROMETEOROLOŠKA MREŽA: VREMENSKE POSTAJE IN FENOLOŠKA OPAZOVANJA

Pregled podatkov za lokacijo Vitomarci, meteorološka postaja 25168

Pregled senzorjev na lokaciji

ID Ime Zadnja
vrednost
Datum
zadnje
spremembe
Tip
senzorja
1922 Omočenost lista (U) 0 U 26.3.2019 18:30 A730WET
1921 Padavine (mm) 0 mm 26.3.2019 18:30 Generic 0.2 mm
1923 Relativna vlaga 2 m (% RH) 35,68 % RH 26.3.2019 18:30 Generic 0 - 100 %
1924 Temperatura 2 m (°C) 10,04 °C 26.3.2019 18:30 Generic -40 - +60 °C

Pregled podatkov zadnjih 24 ur

Zap.
št.
Datum in čas Vitomarci
Omočenost
lista
Padavine Relativna
vlaga
2
m
Temperatura
2
m
1 26.3.2019 17:30 0 0 35,7 10
2 26.3.2019 17:00 0 0 35,2 10,3
3 26.3.2019 16:30 0 0 32,6 10,9
4 26.3.2019 16:00 0 0 34,4 10,2
5 26.3.2019 15:30 0 0 31,9 10,5
6 26.3.2019 15:00 0 0 31,5 11
7 26.3.2019 14:30 0 0 33,2 10,5
8 26.3.2019 14:00 0 0 32,5 10,1
9 26.3.2019 13:30 0 0 35,1 9,3
10 26.3.2019 13:00 0 0 35,4 9,2
11 26.3.2019 12:30 0 0 36,2 9,9
12 26.3.2019 12:00 0 0 37,2 9,5
13 26.3.2019 11:30 0 0 39 8,4
14 26.3.2019 11:00 0 0 40,5 8,9
15 26.3.2019 10:30 0 0 43 8,6
16 26.3.2019 10:00 0 0 50,1 7,8
17 26.3.2019 09:30 0 0 53,7 7,1
18 26.3.2019 09:00 0 0 54,8 6,6
19 26.3.2019 08:30 0 0 58,1 5,9
20 26.3.2019 08:00 0 0 66,4 4,4
21 26.3.2019 07:30 0 0 64,2 4,1
22 26.3.2019 07:00 0 0 65,6 3,8
23 26.3.2019 06:30 0 0 69,7 3,1
24 26.3.2019 06:00 0 0 70,3 3,1
25 26.3.2019 05:30 0 0 71,6 3,2
26 26.3.2019 05:00 0 0 71,2 3,4
27 26.3.2019 04:30 0 0 75,3 3,2
28 26.3.2019 04:00 0 0 74,3 3,4
29 26.3.2019 03:30 0 0 72,1 3,8
30 26.3.2019 03:00 0 0 73,6 3,8
31 26.3.2019 02:30 0 0 80,3 3,7
32 26.3.2019 02:00 0 0 89,1 3,5
33 26.3.2019 01:30 0 0 87,1 3,6
34 26.3.2019 01:00 0 0 85,4 3,7
35 26.3.2019 00:30 0 0 86,3 3,8
36 26.3.2019 00:00 0 0 74,3 4,7
37 25.3.2019 23:30 0 0 74,9 4,7
38 25.3.2019 23:00 0 0 73,8 5
39 25.3.2019 22:30 0 0 60 6
40 25.3.2019 22:00 0 0 55,4 6,4
41 25.3.2019 21:30 8 0 65,2 5,5
42 25.3.2019 21:00 9 0 66,3 5,5
43 25.3.2019 20:30 3 0 64,9 5,8
44 25.3.2019 20:00 9 0 62,8 6,2
45 25.3.2019 19:30 10 0,2 66,3 6,1
46 25.3.2019 19:00 9 0,2 69,4 6,3
47 25.3.2019 18:30 9 0 71,8 6,1
48 25.3.2019 18:00 9 0,4 86,1 5,8
© 2011 Ministrstvo za kmetijstvo, gozdarstvo in prehrano. Vse pravice pridržane.